Back to catalog

PEGASUS R/B

AliveLEO
NORAD 22639·ROCKET BODY·🇺🇸 United States

Launched Apr 25, 1993 from Vandenberg Space Force Base

Loading…

Next Passes (next 24 hours)

TLE

FreshSource: Space-Track

Epoch: Sep 14, 2026, 09:19 UTC

1 22639U 93026B   26257.38851552  .00000096  00000-0  55239-4 0  9994
2 22639  69.9192 138.6689 0060620  70.5234 290.2426 14.33009481122177

Track PEGASUS R/B in real time with AllMySat

Download on the App Store